Flag for Sweden Weather past 2 weeks in Stockholm, Sweden

Now
57 °F

Drizzle. Mostly cloudy.


Feels Like: 56 °F
Forecast: 56 / 65 °F
Wind: 6 mph from East

Location: Stockholm Bromma Airport

Current Time: Jul 28, 2015 at 8:40:33 AM

Latest Report: Jul 28, 2015 at 7:50 AM


Visibility: N/A

Pressure: 29.59 "Hg

Humidity: 82%

Dew point: 52 °F

Location of StockholmLocation

Historic Weather in Stockholm — Graph

°F

Stockholm temperature yesterday

Maximum temperature yesterday: 64 °F (at 12:20 PM)
Minimum temperature yesterday: 54 °F (at 3:50 AM)
Average temperature yesterday: 59 °F

Past Weeks' High & Low Weather Summary

 TemperatureHumidityPressure
High73 °F (Jul 15, 12:50 PM)100% (Jul 14, 12:20 AM)29.98 "Hg (Jul 14, 12:20 AM)
Low48 °F (Jul 14, 2:20 AM)35% (Jul 24, 3:50 PM)29.33 "Hg (Jul 26, 5:50 PM)
Average60 °F75%29.72 "Hg
* Reported Jul 13 7:20 AM — Jul 28 7:20 AM, Stockholm, Weather by CustomWeather, © 2015

Note: Actual official high and low records may vary slightly from our data, if they occured in-between our weather recording intervals... More about our weather records

Advertising

Stockholm weather history for previous 24 hours

 ConditionsComfort  
Time TempWeatherWind HumidityBarometerVisibility
7:20 AM
Tue, Jul 28
57 °FLight rain. Partly sunny.6 mph88%29.62 "HgN/A
6:50 AM57 °FDrizzle. Partly sunny.6 mph88%29.62 "HgN/A
6:20 AM57 °FDrizzle. Partly sunny.5 mph88%29.62 "HgN/A
5:50 AM57 °FDrizzle. Partly sunny.3 mph82%29.62 "HgN/A
5:20 AM55 °FDrizzle. Overcast.3 mph88%29.62 "HgN/A
4:50 AM55 °FLight rain. Passing clouds.5 mph88%29.62 "HgN/A
4:20 AM55 °FLight rain. Passing clouds.5 mph94%29.62 "HgN/A
3:50 AM55 °FOvercast.2 mph94%29.62 "HgN/A
3:20 AM55 °FOvercast.3 mph94%29.62 "HgN/A
2:50 AM55 °FLight rain. Passing clouds.2 mph88%29.62 "HgN/A
2:20 AM55 °FPassing clouds.1 mph94%29.62 "HgN/A
1:50 AM55 °FLight rain. Passing clouds.3 mph88%29.65 "HgN/A
1:20 AM57 °FOvercast.3 mph82%29.65 "HgN/A
12:50 AM55 °FMostly cloudy.2 mph88%29.65 "HgN/A
11:20 PM
Mon, Jul 27
57 °FOvercast.3 mph82%29.65 "HgN/A
10:50 PM57 °FOvercast.3 mph82%29.65 "HgN/A
10:20 PM59 °FOvercast.3 mph77%29.65 "HgN/A
9:50 PM59 °FSunny.5 mph77%29.65 "Hg10 mi
9:20 PM59 °FSunny.6 mph72%29.65 "Hg10 mi
8:50 PM59 °FSunny.6 mph72%29.62 "Hg10 mi
8:20 PM61 °FPassing clouds.5 mph72%29.62 "HgN/A
7:50 PM61 °FSunny.6 mph68%29.62 "Hg10 mi
7:20 PM61 °FSunny.6 mph63%29.62 "Hg10 mi
6:50 PM63 °FSunny.7 mph59%29.62 "Hg10 mi
6:20 PM63 °FPassing clouds.7 mph59%29.62 "HgN/A
5:50 PM63 °FPassing clouds.8 mph59%29.62 "HgN/A
5:20 PM63 °FPassing clouds.8 mph59%29.62 "HgN/A
4:50 PM63 °FScattered clouds.9 mph64%29.62 "HgN/A
4:20 PM64 °FScattered clouds.8 mph56%29.62 "HgN/A
3:50 PM64 °FScattered clouds.9 mph56%29.62 "HgN/A
3:20 PM64 °FScattered clouds.9 mph60%29.62 "HgN/A
2:50 PM63 °FPartly sunny.10 mph64%29.59 "HgN/A
2:20 PM64 °FScattered clouds.13 mph64%29.59 "HgN/A
1:50 PM63 °FPartly sunny.12 mph64%29.59 "HgN/A
1:20 PM63 °FPartly sunny.10 mph64%29.59 "HgN/A
12:50 PM63 °FBroken clouds.10 mph68%29.56 "HgN/A
12:20 PM64 °FPartly sunny.14 mph64%29.56 "HgN/A
11:50 AM63 °FPartly sunny.13 mph64%29.56 "HgN/A
11:20 AM63 °FPartly sunny.14 mph68%29.56 "HgN/A
10:50 AM61 °FPartly sunny.14 mph72%29.53 "HgN/A
10:20 AM61 °FBroken clouds.15 mph72%29.53 "HgN/A
9:50 AM59 °FScattered clouds.12 mph77%29.53 "HgN/A
9:20 AM57 °FBroken clouds.10 mph82%29.53 "HgN/A
8:50 AM55 °FMostly cloudy.10 mph88%29.50 "HgN/A
8:20 AM55 °FDrizzle. Overcast.12 mph88%29.50 "Hg6 mi
Weather by CustomWeather, © 2015

See weather overviewHow to use our weather pages